User: anonymous   Login
Location: Unspecified
(0.0000°N, 0.0000°E)
Time: 12:20:10
(UTC+00:00)
Language:

Chandra X-Ray Observatory - Orbit

View from above orbital plane
View from above orbital plane
View from above satellite
View from above satellite

Ground track
Ground track

The orbit data is extracted from the following two-line orbital elements,

1 25867U 99040B   19296.15966100  .00000828  00000-0  00000+0 0  9992
2 25867  66.1179 272.8899 7379069 231.5978   0.4670  0.37806300 19296
Epoch (UTC): 23 October 2019 03:49:54
Eccentricity: 0.7379069
inclination: 66.1179°
perigee height: 14796 km
apogee height: 134026 km
right ascension of ascending node: 272.8899°
argument of perigee: 231.5978°
revolutions per day: 0.37806300
mean anomaly at epoch: 0.4670°
orbit number at epoch: 1929

The dashed part of the orbit path shows where the satellite is in the earth's shadow,  

DLR